GFSSGP_700_rhum_333.txt.gz
RH
2 2 3 2 15 27 8 13 10 18 23 23 30 23 29 32 43 47 52 46 51 52 48 51 50 53 41 29 12 9 56 69 72 68 43 52 51 68 88 83 70 74 72 78 76 58 31 13 12
2 2 3 23 34 36 13 6 15 16 18 19 30 31 31 51 53 46 51 46 45 48 41 38 47 47 35 23 9 12 54 71 75 79 48 60 67 62 92 84 76 76 76 79 81 69 31 14 11
2 2 4 29 25 26 15 6 12 12 17 24 25 25 33 56 46 42 46 46 43 42 41 36 32 27 22 18 8 18 56 75 82 84 56 67 73 65 95 85 70 80 83 88 84 58 20 13 12
2 3 8 27 29 17 22 19 18 15 11 20 22 23 46 73 52 40 44 41 37 37 38 38 36 27 16 11 8 33 70 82 86 86 78 69 81 71 90 88 77 77 95 99 80 39 19 13 13
2 7 27 29 24 17 13 12 10 9 11 17 18 32 35 52 43 41 35 33 32 35 34 40 39 32 15 6 9 56 81 84 87 92 90 74 81 89 92 95 82 84 93 94 66 30 18 13 12
4 22 26 25 22 17 16 13 10 10 12 14 13 15 33 52 38 32 30 29 27 29 33 42 44 38 16 5 17 71 85 88 91 97 93 76 78 93 95 89 86 90 84 97 45 30 15 12 12
11 41 38 30 24 20 16 14 12 9 7 9 12 11 38 56 49 24 39 34 35 28 46 46 49 43 20 5 24 76 86 92 96 100 92 76 72 83 80 79 91 97 83 84 44 23 15 13 12
23 39 34 30 28 22 15 12 12 10 9 10 11 10 20 47 54 45 52 35 24 30 45 53 54 50 26 6 36 82 86 94 89 96 95 76 79 83 80 81 86 89 88 86 75 24 20 13 12
39 43 40 24 24 19 15 15 12 12 12 11 10 10 11 30 52 34 37 41 43 43 32 59 55 53 35 8 47 83 86 95 85 88 85 84 89 89 96 100 100 95 100 95 89 40 32 15 13
33 28 24 19 24 22 19 18 16 14 12 12 9 11 13 18 22 17 17 19 20 23 34 44 59 52 42 9 52 82 84 86 82 89 88 95 98 93 93 96 100 100 100 100 69 53 18 19 13
28 30 28 24 22 21 20 18 17 16 14 13 12 10 10 11 23 37 30 26 24 21 30 31 62 51 48 16 36 82 83 86 80 80 90 91 91 86 96 97 100 89 87 99 86 58 16 17 16
28 25 22 20 19 18 17 16 15 15 15 14 13 12 11 10 15 33 44 38 22 56 58 50 66 61 52 34 21 83 84 82 83 83 87 98 76 90 89 84 51 28 41 56 32 14 24 27 34
23 23 22 21 20 19 18 18 18 16 11 13 13 13 12 10 11 12 34 45 35 52 77 81 66 70 54 45 18 75 85 86 85 91 86 97 78 84 56 20 12 11 11 13 15 21 24 29 85
6 11 12 11 10 13 14 15 18 13 14 17 17 15 11 8 10 11 13 28 46 39 69 73 77 71 58 55 31 40 90 90 86 81 88 94 79 95 90 51 12 11 12 15 19 24 26 46 60
6 10 13 9 17 10 9 10 12 14 16 14 14 15 10 10 12 8 12 14 24 34 58 77 71 65 68 58 54 22 78 96 92 88 95 96 85 96 100 69 13 13 15 21 26 36 69 83 91
22 24 21 11 10 8 9 6 9 15 17 16 15 15 15 15 11 12 11 11 14 22 47 62 58 58 72 66 63 34 33 96 100 100 88 95 91 85 60 28 15 17 20 26 34 86 94 96 92
24 16 10 7 6 18 14 7 2 2 10 19 19 18 16 13 14 10 10 14 13 17 46 54 52 42 61 75 72 57 26 75 100 100 96 97 87 87 27 20 19 41 42 80 43 91 100 96 99
21 15 14 20 26 21 13 13 5 1 8 18 19 19 17 15 16 18 14 11 12 13 14 23 39 50 59 71 85 68 41 47 88 99 96 90 99 99 78 39 36 61 85 79 86 49 100 97 81
19 18 18 21 22 16 17 18 9 3 15 18 27 24 20 20 17 16 16 15 17 14 12 14 40 46 52 65 80 80 49 38 61 98 99 92 98 99 98 85 88 64 40 91 98 88 95 81 36
21 26 23 21 17 20 19 10 8 10 25 44 49 38 26 20 19 19 16 16 16 18 15 12 13 22 41 64 63 81 69 35 52 88 94 92 83 97 98 95 100 89 89 96 99 94 55 52 22
26 28 26 29 20 23 24 22 25 31 52 52 50 44 37 29 21 20 19 18 20 17 25 19 12 15 29 44 57 80 98 51 48 79 95 99 80 96 99 89 91 95 96 98 100 99 62 37 21
31 32 32 31 34 30 21 31 31 56 72 77 77 49 34 24 27 20 21 19 19 19 23 56 41 15 23 39 56 59 97 81 49 35 95 100 89 89 96 95 76 84 94 97 99 93 88 41 18
39 39 36 35 33 27 28 30 64 73 74 71 79 81 64 38 33 23 22 20 18 19 19 47 68 48 25 36 48 62 82 94 71 50 82 93 99 92 88 92 88 93 98 98 99 70 79 28 20
35 36 34 31 33 38 77 85 95 90 98 99 77 84 76 68 61 42 29 23 18 18 19 22 73 90 47 40 38 53 57 91 86 62 25 51 87 100 100 91 90 85 96 99 56 65 38 26 18
46 48 43 45 48 46 47 87 97 96 97 100 99 84 78 84 62 65 44 27 20 20 20 23 34 98 98 58 39 48 50 58 76 74 34 17 59 74 94 77 77 90 86 69 56 40 27 28 23
51 60 69 82 73 68 60 95 96 97 97 97 97 88 84 70 64 60 63 46 24 21 23 23 32 55 98 96 93 55 54 44 65 83 73 23 15 45 73 89 92 97 82 66 39 41 38 22 16
90 80 63 73 64 64 95 97 95 90 94 94 96 95 81 73 63 57 52 60 53 28 26 27 28 64 71 83 69 93 80 58 45 83 78 60 21 12 68 84 76 72 81 80 56 40 20 24 14
85 79 74 75 83 85 96 94 97 93 91 94 91 98 90 78 79 61 53 46 56 43 40 67 75 59 98 90 93 53 81 74 74 81 86 79 48 14 31 74 76 79 76 91 79 50 26 19 15
84 92 95 85 93 91 93 96 96 98 96 96 96 96 92 80 77 79 62 43 36 50 52 60 80 96 93 100 93 80 64 83 80 76 90 82 68 29 12 50 66 63 71 80 65 58 36 21 14
80 75 86 84 87 94 82 99 97 98 97 97 94 95 93 94 80 81 78 44 32 30 39 46 56 74 79 89 95 98 56 87 89 90 95 77 72 58 17 14 59 54 53 73 44 28 24 18 16

GFSSGP_700_rhum_336.txt.gz
RH
2 2 3 3 4 4 3 5 7 8 18 25 30 26 31 31 43 34 38 41 42 54 49 46 42 51 57 34 22 11 38 68 69 56 44 42 43 79 76 68 66 69 65 66 57 23 10 10 11
2 2 3 8 10 24 5 7 7 12 14 16 28 29 30 32 37 42 42 45 45 47 41 39 32 42 42 32 22 10 38 68 73 69 56 55 56 87 77 69 70 67 71 73 63 46 27 11 11
2 2 3 8 17 7 8 5 16 14 14 13 25 26 29 30 40 41 42 50 42 41 40 39 36 34 26 24 17 11 39 67 74 78 57 63 66 84 83 69 66 71 74 74 75 62 31 13 13
2 3 6 16 9 6 11 12 16 14 9 9 24 24 34 33 47 52 47 46 38 34 36 37 39 38 26 17 10 11 40 70 80 83 66 69 79 83 86 75 75 76 77 78 77 54 21 14 11
3 4 10 13 4 3 9 20 18 14 11 14 20 25 30 40 43 35 36 30 32 28 31 32 41 40 32 14 7 15 57 80 86 88 74 74 90 85 97 80 74 78 84 79 75 46 22 14 11
5 7 23 17 7 3 12 18 18 12 10 9 13 14 29 53 52 40 36 30 36 32 28 31 44 42 36 13 6 30 79 85 88 92 81 78 88 84 98 89 80 76 91 86 77 49 24 12 10
6 12 11 14 9 6 11 20 19 14 11 12 11 12 29 46 34 25 25 36 44 34 25 34 49 47 40 17 6 49 85 89 93 95 91 96 95 91 98 94 84 78 84 81 81 50 23 13 11
8 30 17 15 13 4 9 20 21 18 12 12 12 12 28 41 47 49 41 45 39 36 36 37 53 53 46 22 8 61 90 94 99 99 100 94 98 98 100 97 93 86 92 80 73 35 17 13 12
19 36 20 12 14 8 8 19 21 20 16 12 12 13 20 47 38 38 29 24 17 18 20 26 43 58 50 30 9 54 89 95 100 98 100 94 98 96 91 85 87 92 92 94 67 26 19 17 12
27 34 24 16 22 22 20 21 22 20 18 14 11 14 42 56 45 32 30 40 38 32 26 22 32 60 53 41 9 42 86 92 98 99 99 98 95 91 88 89 88 89 95 94 80 32 29 24 12
24 27 24 21 24 24 24 22 21 18 18 16 14 14 19 19 26 20 41 60 37 42 29 40 43 57 62 48 12 36 83 88 94 96 100 98 88 88 98 98 98 97 96 97 74 42 38 21 13
22 21 27 27 23 21 20 20 19 18 18 17 15 13 14 15 15 16 15 20 38 53 40 37 64 59 73 58 24 27 83 87 87 92 98 95 99 95 93 95 96 100 99 99 91 44 31 18 18
18 21 22 26 23 21 20 20 19 18 17 17 18 16 13 13 14 14 14 14 24 53 52 43 71 86 70 72 40 18 80 89 89 88 98 97 94 99 85 92 90 96 100 100 95 56 27 20 30
4 5 5 17 16 14 16 17 18 16 15 16 13 13 14 11 11 10 10 13 15 17 54 56 51 70 82 76 61 19 66 91 93 90 96 98 99 88 89 94 98 98 91 94 87 42 18 37 55
7 8 6 15 20 19 15 12 11 8 10 12 16 18 16 16 15 14 14 14 13 14 16 60 48 72 77 76 78 40 36 91 92 88 96 97 90 94 70 73 42 39 87 100 39 19 22 52 84
25 29 28 24 16 11 11 10 9 5 2 3 3 12 20 21 18 17 16 15 14 14 14 17 46 44 52 58 76 74 24 87 98 99 97 98 97 95 70 16 12 12 13 15 17 18 22 36 71
27 26 22 14 14 18 14 8 5 7 6 4 5 7 15 20 22 19 16 16 15 13 22 14 23 48 50 54 57 81 54 48 100 98 99 94 99 98 94 43 14 14 14 16 22 22 59 91 89
22 20 18 19 20 17 20 10 9 4 4 2 4 5 11 19 22 19 21 20 17 14 15 34 14 35 40 49 50 70 83 33 76 99 98 100 92 96 99 88 19 17 19 21 24 36 92 97 98
16 18 22 21 24 22 20 18 14 19 24 15 5 10 12 17 21 21 20 22 21 18 14 21 37 14 19 39 49 54 74 70 55 96 97 100 91 98 100 82 29 21 22 25 32 67 97 98 96
23 23 28 26 25 23 17 10 19 30 38 46 34 29 24 24 24 27 22 21 21 23 16 17 45 60 13 25 37 41 61 80 56 75 72 85 99 83 90 96 36 27 49 47 76 62 94 99 98
36 36 39 39 31 22 13 22 28 27 28 54 62 47 47 33 27 27 24 23 22 22 20 17 21 60 53 21 18 37 57 77 84 59 62 99 91 91 93 84 90 74 95 98 79 88 70 89 94
38 42 40 37 35 34 27 38 58 74 60 63 69 50 52 57 54 41 29 25 25 25 24 22 56 34 85 66 59 20 34 45 68 65 40 92 99 94 87 84 98 97 98 99 97 100 98 96 84
43 36 34 35 37 35 33 50 90 72 64 63 66 65 64 62 68 53 44 34 27 27 23 25 90 77 51 94 78 57 28 40 50 78 54 94 99 94 79 84 84 97 96 99 98 98 100 100 87
58 59 48 39 38 48 64 68 98 88 100 84 81 76 70 66 67 73 62 53 34 30 27 20 33 79 49 67 69 98 62 42 50 63 91 65 94 98 94 98 79 67 81 90 99 100 99 100 70
66 56 62 54 50 46 89 83 97 95 98 98 91 91 80 74 67 79 67 68 55 38 35 26 22 61 63 54 73 94 95 84 58 65 68 78 62 96 92 94 82 84 91 90 93 98 100 96 63
79 96 92 86 50 82 96 94 96 97 97 96 96 97 95 76 78 83 81 63 62 60 56 36 27 30 66 75 80 92 86 93 86 78 60 50 67 25 98 100 89 93 83 97 100 97 95 88 50
81 91 73 97 69 75 96 97 93 80 94 95 96 96 94 89 82 87 94 76 58 65 68 60 38 29 51 33 81 94 91 66 96 89 76 76 85 34 70 100 100 94 86 94 97 95 54 48 65
73 84 81 95 90 94 96 97 99 88 89 94 94 95 96 92 88 86 88 94 63 56 58 70 70 60 50 51 44 73 83 90 85 86 73 68 86 75 41 86 99 97 94 95 94 70 58 39 51
52 74 95 91 92 93 94 97 98 98 96 95 96 96 97 96 93 94 92 92 89 73 55 50 66 99 97 39 36 43 85 91 90 94 83 76 81 93 59 61 73 94 100 97 77 56 47 49 53
58 77 73 74 80 95 75 95 71 95 97 96 96 96 97 97 95 98 100 96 94 81 65 46 41 60 96 99 55 43 55 60 75 85 75 81 84 97 100 38 50 80 93 85 79 82 90 64 51

GFSSGP_700_rhum_342.txt.gz
RH
2 2 2 2 4 3 4 9 11 19 15 13 13 15 25 30 46 38 32 41 36 49 47 41 38 35 44 54 46 29 21 15 36 32 37 56 70 86 83 73 74 69 70 60 18 27 21 10 10
2 2 2 2 3 3 7 15 12 18 14 13 12 14 28 39 50 43 42 42 42 42 41 39 38 33 34 34 31 28 21 18 51 46 39 56 75 87 78 70 50 60 38 35 22 14 10 9 10
2 2 2 2 2 3 6 13 13 17 14 13 15 19 22 45 58 51 47 44 39 36 30 30 38 39 37 30 20 21 17 16 61 61 52 57 77 90 82 68 41 38 28 19 14 10 9 9 10
3 2 2 3 2 4 7 11 22 16 14 14 18 39 39 39 57 55 48 41 33 26 29 32 35 39 40 32 18 14 12 14 62 68 60 58 83 99 87 60 47 58 61 55 42 28 12 10 10
8 4 3 2 2 4 7 14 23 20 19 15 28 43 60 62 69 57 52 43 35 33 32 32 44 44 44 37 20 10 9 15 56 74 70 77 92 98 91 64 67 66 71 66 61 53 29 12 11
7 6 6 6 7 9 12 16 26 25 21 16 22 50 67 70 63 65 60 52 46 29 30 38 41 47 48 44 28 9 8 18 51 78 76 84 98 94 93 83 77 76 75 72 69 64 42 20 11
6 6 7 7 7 7 12 22 22 23 22 18 17 32 43 58 61 78 70 62 30 33 24 23 30 45 52 52 38 14 10 34 63 81 83 84 95 100 88 95 89 81 78 76 70 65 36 20 11
5 7 7 8 10 14 22 20 23 23 20 19 18 37 57 61 70 74 70 57 40 43 34 34 26 22 38 57 48 24 14 55 81 87 90 88 93 99 91 95 88 84 81 83 76 59 32 14 11
10 12 9 12 16 19 24 24 22 21 20 20 19 25 49 78 80 64 67 44 50 49 53 44 34 23 34 52 58 40 16 51 81 93 93 95 95 100 91 96 91 86 83 87 79 70 35 16 10
19 18 20 26 24 23 27 24 23 20 19 20 19 19 26 49 89 69 61 65 67 90 71 53 41 36 52 61 60 54 23 31 72 90 93 94 96 99 90 98 97 92 87 90 92 70 52 30 12
21 20 25 26 28 27 24 22 22 21 20 20 19 18 18 19 46 53 50 39 45 78 56 78 77 50 76 75 70 60 37 23 55 80 86 96 99 100 99 98 100 98 86 84 86 82 58 30 14
15 22 26 26 27 25 22 21 17 18 19 18 14 16 17 18 17 29 40 36 35 44 43 60 80 82 58 89 92 80 65 26 48 88 88 96 99 99 100 100 100 91 78 84 86 87 79 29 17
5 9 19 25 24 22 21 19 15 16 14 14 8 11 17 17 18 18 19 30 30 33 36 38 56 71 80 64 91 91 81 54 35 88 97 100 99 99 100 98 99 98 91 91 88 90 84 32 24
5 5 7 13 22 22 20 20 20 18 15 12 7 5 12 17 17 16 16 16 17 24 30 30 30 42 73 59 65 85 86 72 36 79 97 100 99 99 100 99 99 98 99 96 98 98 89 67 28
15 13 17 22 27 21 20 18 18 20 18 14 10 4 4 13 19 19 16 15 17 16 16 19 26 25 28 53 58 74 90 84 57 58 96 100 99 99 94 92 99 95 100 96 95 100 99 68 33
21 24 27 24 24 23 22 20 18 19 18 17 14 8 4 2 8 18 21 19 17 16 15 16 18 26 17 38 49 54 97 72 84 57 87 100 100 99 99 99 100 100 100 96 100 99 98 85 38
15 22 21 21 21 21 22 23 22 21 21 18 17 15 8 3 3 6 15 21 22 18 15 14 15 20 21 26 43 54 69 60 76 80 71 98 100 99 98 98 98 98 98 100 100 99 96 86 34
28 27 26 26 28 27 28 29 27 27 25 22 20 18 15 9 4 4 6 16 19 22 21 17 15 15 24 22 31 39 62 62 67 75 74 91 99 98 98 95 98 97 97 100 100 99 99 94 34
10 8 8 7 18 35 35 38 40 41 36 30 24 18 12 9 6 5 4 8 17 21 22 22 20 16 18 31 37 40 48 49 70 70 86 80 87 88 98 95 98 98 100 100 100 100 99 100 49
6 7 6 6 23 39 50 56 66 57 50 42 31 21 14 8 5 5 5 7 12 20 22 22 24 22 17 28 36 33 35 43 52 69 75 93 84 70 82 95 100 90 95 100 100 100 100 98 51
28 35 35 40 33 30 29 67 89 76 76 68 61 47 38 20 8 5 4 4 5 15 21 22 22 24 24 28 35 44 49 58 67 79 68 79 96 83 90 98 93 91 95 75 100 100 100 79 35
38 38 45 50 88 92 50 72 87 82 78 72 61 54 43 32 25 16 8 9 8 8 19 23 22 22 24 52 38 89 96 53 57 56 79 81 89 94 76 99 95 94 78 51 38 96 98 57 43
57 48 41 39 66 100 61 75 96 90 79 84 83 74 64 51 35 20 13 11 12 18 13 21 24 24 22 26 87 86 99 83 57 65 90 66 83 99 96 99 99 87 76 80 64 30 45 45 34
62 60 34 56 72 91 76 76 98 93 99 90 90 89 84 76 65 55 47 41 38 35 28 23 28 26 25 24 84 100 97 86 63 58 90 64 84 84 98 98 98 99 94 88 85 57 25 28 32
35 48 79 56 90 89 96 88 99 96 97 97 98 92 93 89 82 76 66 60 51 52 47 35 38 32 32 27 44 98 100 93 82 68 78 68 71 81 77 98 82 98 95 94 90 88 43 28 38
50 83 98 94 91 94 92 94 99 99 100 97 99 100 96 82 84 90 85 80 76 63 66 56 42 42 33 31 40 74 98 99 81 62 74 90 79 90 81 96 93 96 89 100 98 97 67 40 50
33 37 63 97 94 73 95 92 94 91 95 95 91 88 90 93 85 86 87 90 86 82 76 69 59 50 42 40 32 54 97 99 99 98 91 97 82 98 91 98 100 92 99 98 100 100 100 99 97
32 42 64 88 95 95 96 96 98 78 67 69 69 68 74 85 90 88 82 83 93 96 88 78 68 60 59 48 41 57 89 94 99 92 99 78 97 96 92 94 97 99 100 97 93 88 90 98 99
40 34 41 68 75 97 95 92 99 76 61 50 40 39 50 53 76 87 86 86 92 99 98 82 73 69 74 65 52 39 88 100 99 99 97 82 81 86 100 88 100 96 98 97 86 94 86 86 87
54 44 47 68 62 92 84 89 70 66 54 45 40 38 42 45 41 42 69 90 89 91 98 92 86 78 73 82 75 49 40 78 98 100 97 86 99 96 99 98 98 98 89 99 89 92 100 100 100

GFSSGP_700_rhum_348.txt.gz
RH
2 2 2 3 15 12 14 22 27 20 20 20 14 15 20 37 43 59 40 42 35 39 44 45 38 33 35 36 43 32 24 17 24 39 57 70 79 78 79 82 84 83 82 81 64 51 27 18 13
1 2 2 7 9 8 13 24 23 24 20 14 15 14 18 44 36 55 48 45 42 41 40 39 37 37 37 32 31 28 24 18 24 36 48 68 80 80 79 80 82 82 83 52 28 18 15 14 12
8 2 10 16 9 5 14 24 25 22 20 15 26 22 80 78 47 40 55 61 51 44 42 41 40 39 38 33 24 25 22 18 26 38 47 67 78 87 79 83 81 76 85 45 25 14 13 14 12
8 6 2 12 10 18 20 25 25 20 20 21 42 70 62 57 70 74 66 71 57 51 50 50 46 43 40 34 24 22 21 19 25 47 52 62 79 94 85 86 86 81 79 58 24 23 16 14 13
4 7 13 12 18 21 23 23 22 20 20 16 38 65 81 51 55 65 82 60 49 44 51 64 61 51 42 36 28 24 19 17 24 50 60 63 76 96 94 87 84 81 66 66 28 25 16 14 14
15 7 13 10 19 23 27 26 23 19 23 17 34 68 50 56 53 63 86 65 56 58 64 66 63 51 42 41 40 39 26 20 25 53 66 70 80 94 96 90 92 86 54 35 21 15 15 14 15
25 18 17 22 21 21 30 20 18 22 14 20 19 69 77 63 55 74 81 72 69 52 57 61 58 53 46 39 32 25 31 29 40 55 70 74 82 86 90 94 87 90 68 28 18 17 16 16 16
8 20 21 25 21 29 29 25 22 20 19 20 16 26 62 69 59 72 82 77 61 40 45 44 50 55 54 48 38 30 23 28 50 63 76 82 80 91 99 97 88 91 67 50 25 23 19 16 16
4 19 18 28 28 31 25 22 23 21 19 19 20 18 29 52 66 68 100 83 60 51 46 38 29 26 37 48 48 43 31 27 49 59 68 81 88 89 88 100 94 92 75 59 44 37 26 20 17
26 20 32 30 29 30 25 24 24 22 21 20 20 20 23 35 57 69 74 92 70 54 48 49 38 31 23 32 51 59 63 47 54 61 72 78 87 93 96 97 93 91 88 74 65 44 28 21 17
27 27 30 29 28 28 28 25 22 22 22 21 20 20 20 20 34 37 68 87 76 74 67 57 53 44 52 43 45 62 63 69 72 57 60 75 79 94 99 100 99 88 95 90 75 43 30 23 16
25 16 24 25 26 25 24 23 23 23 21 21 20 20 20 20 19 19 38 68 69 58 55 52 47 34 37 36 53 73 78 73 75 68 51 65 86 97 99 100 99 94 99 98 82 59 36 25 19
25 25 17 21 21 23 22 21 21 21 20 20 21 20 20 20 19 19 19 20 38 48 47 56 56 51 41 42 62 82 89 84 79 79 59 54 75 99 97 97 99 97 100 98 91 68 57 32 25
22 25 25 24 23 22 22 21 21 21 21 18 18 19 18 17 18 18 18 18 19 20 29 38 42 50 53 45 53 62 72 84 83 82 73 61 56 86 100 100 94 93 99 97 93 86 67 46 30
18 24 29 28 24 25 24 41 24 22 22 23 22 17 14 12 12 14 16 16 18 18 18 18 20 34 36 48 53 42 55 69 79 84 80 70 56 70 99 99 98 96 95 97 97 90 87 50 39
13 21 14 14 12 20 16 21 32 24 22 24 25 25 21 17 11 6 10 13 15 16 16 17 17 17 17 28 45 50 50 53 61 74 79 82 67 67 88 100 99 100 100 94 93 95 85 70 54
9 9 10 11 12 19 35 26 60 17 17 25 24 25 25 22 21 17 10 6 16 17 15 16 16 16 16 17 22 35 54 49 52 70 64 73 82 70 76 95 93 99 97 100 100 90 92 78 68
13 14 13 12 14 28 48 77 92 88 68 52 40 30 27 25 24 23 20 16 8 6 16 18 18 17 16 15 15 17 31 49 40 41 41 61 76 82 73 84 100 99 94 92 98 99 97 99 74
21 18 15 20 26 32 53 65 76 88 92 89 62 60 53 43 31 26 24 21 16 12 7 7 20 20 19 18 16 16 16 32 35 26 37 48 59 74 86 83 99 100 100 91 100 100 99 100 100
24 25 22 28 33 40 31 62 94 100 100 100 93 73 70 52 47 37 30 23 20 17 14 13 10 8 18 19 18 17 16 20 30 27 37 46 61 62 60 86 92 86 100 99 98 98 100 97 100
22 20 24 33 43 43 47 82 86 94 100 100 100 100 100 89 58 47 37 29 21 16 14 13 14 12 6 17 20 19 18 16 20 34 69 54 57 60 59 80 98 99 98 98 97 99 100 100 100
19 22 29 40 46 32 58 76 78 74 84 100 100 100 100 100 100 73 52 39 30 20 16 14 8 10 10 4 19 21 21 20 17 23 45 37 52 54 48 75 91 99 100 96 92 96 100 99 99
29 30 27 48 50 48 52 54 75 85 84 94 100 100 100 100 100 100 90 63 47 31 18 12 11 9 9 6 4 19 23 23 21 20 27 50 52 60 53 66 75 95 99 94 88 89 98 100 100
28 26 22 51 44 47 59 67 85 97 99 99 96 99 96 96 99 100 100 99 75 61 36 18 11 8 7 6 5 4 19 23 23 22 24 45 74 59 66 79 78 97 96 98 97 90 92 100 100
35 34 21 23 52 52 88 68 98 100 93 90 88 91 99 91 93 96 100 94 80 72 64 39 18 12 7 6 7 4 4 21 25 24 30 43 66 70 70 67 68 82 86 96 100 96 91 93 100
37 33 47 59 52 53 82 85 98 88 75 75 76 83 89 92 90 90 95 76 80 80 74 68 45 20 11 8 8 8 5 9 26 25 55 64 59 68 81 74 79 82 98 96 92 87 89 100 100
49 40 41 67 56 52 66 87 74 69 69 72 76 81 82 84 87 91 92 53 30 63 78 75 77 59 28 18 17 14 8 8 17 29 31 47 94 68 92 92 72 82 89 98 94 97 95 95 99
52 53 49 42 46 44 66 68 58 72 78 75 76 80 80 85 87 90 93 37 27 24 48 78 79 82 70 54 40 28 21 11 15 28 30 43 97 92 80 96 90 90 77 87 100 100 100 99 97
51 51 50 51 48 46 47 64 58 84 87 80 78 76 78 85 91 93 97 61 22 23 20 53 78 82 86 83 69 54 44 27 24 25 36 49 66 88 99 85 94 87 92 83 100 100 99 100 99
71 62 54 53 38 36 45 56 57 77 77 77 84 84 84 87 93 97 99 82 28 19 25 17 62 84 89 91 89 76 62 51 39 31 32 39 54 93 98 84 91 88 89 99 86 96 100 98 100